ARIANE 5 DEB (SYLDA), 33277

Orbit data source: Space-Track

ARIANE 5 DEB (SYLDA), 33277 is space debris in HEO originally from a launch on Thu, 14 Aug 2008 UTC launched from the French Guiana (FRGUI). Debris objects in space refer to the collection of defunct objects orbiting the Earth. Examples of debris include non-operational satellites, rocket bodies, and fragments generated from explosions, collisions, or faulty payload assembly.

Loading next visibility...
Identifier
33277, 2008-038D
Orbit
HEO
Country
Flag of FRFR
Related business
Manufacturer
EADS/Bremen
Mission
Spacecraft
Bus & Motor
SYLDA 5, Unknown motor
Mass
440 kg wet, 440 kg dry
Launch date (UTC)
2008-08-14 (17 years ago)
Launch vehicle
Unknown
Launch site
French Guiana (FRGUI)
Object type
Payload
Rocket body
Debris
Shape & HBR
Cyl, 2.9 m
Radar Cross Section
28.451 m², Large (>1 m²)

Expand to show TLE details & history
Last TLE update: 13 hours ago

TLE from 13 hours ago
0 ARIANE 5 DEB (SYLDA)
1 33277U 08038D   25346.74419372  .00000863  00000-0  19639-2 0  9995
2 33277   2.4870 329.2840 5544398  71.4670 339.2618  4.52469016235500
Epoch: 2025-12-12T17:51Z
TLE epoch observation values (Epoch: 2025-12-12T17:51:38.337Z)
Latitude
-0°
Longitude
-20.25534°
Altitude
2,709.108 km
Speed
7.868 km/s
True Right ascension
21h 57m 20s
True Declination
0° 00' 00"
Sunlit
Object was in daylight at epoch
Visualization orbit readout
Latitude
Unknown
Longitude
Unknown
Altitude
Unknown
Speed
Unknown
Apparent Right ascension
Unknown
Apparent Declination
Unknown
Sunlit
N/A
Visualization observer readout
Local Sidereal Time
05:21:37
Azimuth
Unknown
Elevation
Unknown
Doppler factor
Unknown
Orbital elements
Apogee altitude
17,631.684 km
Perigee altitude
503.97 km
Semi-major axis
15,445.964 km
Eccentricity
0.55444
Inclination
2.487°
RAAN
329.284°
Arg. of periapsis
71.467°
True anomaly
288.73316°
Mean anomaly
339.2618°
Eccentric anomaly
318.00933°
Mean motion
1.13063 °/min
Orbital period
318.41 mins
BSTAR
0.0019639
Loading maneuver chart data...
Computing Atmospheric mass density...
Loading historical data...
Loading historical data...
Loading historical data...
Loading historical data...
Loading historical data...
Loading historical data...
Loading historical data...
Other satellites on launch #38 in the year 2008 (2008-08-14 UTC)

Documentation

Showing up to 5 results
|